Location: Acorn Hill
(36.4429°N, 76.5469°W)
Time: 07:48:08
(UTC+00:00)

BlueWalker 3 - Pass Details

Date: 08 December 2022
Orbit: 499 x 517 km, 53.2° (Epoch: 06 February)

Event Time Altitude Azimuth Distance (km) Brightness Sun altitude
Rises 00:08:19 0° 319° (NW) 2,618 6.0 -27.0°
Reaches altitude 10° 00:10:37 10° 327° (NNW) 1,726 4.9 -27.4°
Enters shadow 00:11:01 12° 329° (NNW) 1,580 4.7 -27.5°
